Skip Page Navigation
NASA JPL Caltech
NASA Logo - Jet Propulsion Laboratory + View the NASA Portal
+ Near-Earth Object (NEO) Program
Search JPL
JPL Home Earth Solar System Stars & Galaxies Technology
JPL Solar System Dynamics
BODIES ORBITS EPHEMERIDES TOOLS PHYSICAL DATA DISCOVERY FAQ SITE MAP
JPL Small-Body Database Browser
Search: [ help ]  
3307 Athabasca (1981 DE1)
Classification: Main-belt Asteroid          SPK-ID: 2003307
Ephemeris | Orbit Diagram | Orbital Elements | Physical Parameters | Discovery Circumstances ]

[ hide orbit diagram ]
Orbit Diagram
Note: Make sure you have Java enabled on your browser to see the applet. This applet is provided as a 3D orbit visualization tool. The applet was implemented using 2-body methods, and hence should not be used for determining accurate long-term trajectories (over several years or decades) or planetary encounter circumstances. For accurate long-term ephemerides, please instead use our Horizons system.
Orbit Viewer

Additional Notes: the orbits shown in the applet are color coded. The planets are white lines, and the asteroid/comet is a blue line. The bright white line indicates the portion of the orbit that is above the ecliptic plane, and the darker portion is below the ecliptic plane. Likewise for the asteroid/comet orbit, the light blue indicates the portion above the ecliptic plane, and the dark blue the portion below the ecliptic plane.

Orbit Viewer applet originally written and kindly provided by Osamu Ajiki (AstroArts), and further modified by Ron Baalke (JPL).


Orbital Elements at Epoch 2456400.5 (2013-Apr-18.0) TDB
Reference: MPO236411 (heliocentric ecliptic J2000)
 Element Value Uncertainty (1-sigma)   Units 
e 0.0953954 n/a  
a 2.2591699 n/a AU
q 2.0436555 n/a AU
i 6.37551 n/a deg
node 263.22308 n/a deg
peri 146.20236 n/a deg
M 285.53883 n/a deg
tp 2456657.0364785
(2013-Dec-30.53647850)
n/a JED
period 1240.2858059
3.40
n/a
n/a
d
yr
n 0.29025568 n/a deg/d
Q 2.4746843 n/a AU
  Orbit Determination Parameters
   # obs. used (total)      779  
   first obs. used      1977-??-??  
   last obs. used      2012-08-13  
   # oppositions      19  
   planetary ephem.      DE403  
   condition code      0  
   fit RMS      0.55  
   data source      MPC:mpn  
   producer      MPCLINUX  

Additional Information
 T_jup = 3.607 

Ephemeris | Orbit Diagram | Orbital Elements | Physical Parameters | Discovery Circumstances ]

Physical Parameter Table
Parameter Symbol Value Units Sigma Reference Notes
absolute magnitude H 13.9 mag n/a PDS3 (MPC 28109)  
diameter diameter 11 km n/a DASTCOM value unverified
rotation period rot_per 4.902 h n/a Asteroid Lightcurve DataBase (Rev. 2013-May-01) Published Reference List:
[Hasegawa, S.; Miyasaka, S.; Yoshizumi, C.; Sekiguchi, T.; et al. (2012) arXiv:1204.0548.]
geometric albedo albedo 0.0441   0.014 EAR-A-5-DDR-ALBEDOS-V1.0:IMPS IMPS quality code 2: from the PDS IMPS singleton file
SMASSII spectral type spec_B V   n/a EAR-A-5-DDR-TAXONOMY-V4.0 based on a high-resolution spectrum by Xu et al. (1995) or Bus and Binzel (2002)

3307 Athabasca (1981 DE1)          Discovered 1981-Feb-28 by Bus, S. J. at Siding Spring (413)
Reference: DISCOVERY.DBLast Updated: 2003-08-29

Alternate Designations
 1981 DE1 = 1977 AS = 2003 WM33 
Ephemeris | Orbit Diagram | Orbital Elements | Physical Parameters | Discovery Circumstances ]
ABOUT SSD CREDITS/AWARDS PRIVACY/COPYRIGHT GLOSSARY LINKS
FirstGov 2013-May-23 07:59 UT
(server date/time)  
NASA Home Page
Site Manager:   Donald K. Yeomans
Webmaster  Alan B. Chamberlin